Location: Gisborne
(38.6530°S, 178.0040°E)
Time: 22:45:33
(UTC+12:00)

Daily predictions for brighter satellites

Satellite Brightness Start Highest point End
(mag) Time Altitude Azimuth Time Altitude Azimuth Time Altitude Azimuth
Cosmos 968 Rocket 3.7 17:26:24 10° SSW 17:31:44 86° WNW 17:37:02 10° NNE
Cosmos 1892 3.0 17:29:19 10° N 17:33:12 76° W 17:37:09 10° S
Meteor 1-31 Rocket 4.0 17:31:34 10° S 17:35:17 45° WSW 17:38:57 10° NNW
Cosmos 1844 Rocket 3.8 17:32:40 10° SSW 17:38:07 50° WNW 17:43:29 10° N
NOSS 0 Rocket 4.2 17:33:13 10° N 17:39:11 50° ENE 17:45:11 10° SE
Cosmos 2278 Rocket 3.0 17:34:56 10° S 17:39:51 29° ESE 17:44:44 10° ENE
COSMOS 2428 3.0 17:39:17 10° NNW 17:44:59 75° WSW 17:50:45 10° SSE
Cosmos 1354 Rocket 4.2 17:44:05 10° S 17:49:17 51° ESE 17:54:23 10° NE
CZ-4B R/B 4.4 17:45:34 10° SE 17:49:24 20° E 17:53:09 10° NE
IRIDIUM 104 4.4 17:44:58 10° S 17:50:12 57° E 17:55:21 10° NNE
Cosmos 2219 Rocket 3.0 17:45:40 10° NW 17:51:09 54° WSW 17:56:41 10° SSE
Cosmos 2360 Rocket 4.4 17:46:56 10° WNW 17:51:14 22° SW 17:55:34 10° S
Cosmos 1939 Rocket 4.3 17:48:23 10° SE 17:51:25 19° E 17:54:26 10° NE
Cosmos 192 4.4 17:47:17 10° N 17:52:06 59° ENE 17:56:59 10° SSE
Cosmos 1953 Rocket 4.5 17:48:20 10° NNW 17:52:43 54° W 17:57:11 10° S
Lacrosse 5 3.6 17:49:36 10° SSW 17:52:50 16° SSE 17:55:31 12° ESE
Nadezhda 4 Rocket 4.4 17:47:06 10° NNW 17:53:12 69° W 17:59:26 10° S
Cosmos 1092 Rocket 4.0 17:47:51 10° N 17:54:01 72° E 18:00:20 10° S
USA 276 2.3 17:51:29 10° SW 17:54:40 55° SSE 17:57:48 10° ENE
H-2A R/B 4.0 17:57:02 14° E 17:57:29 14° E 17:59:30 10° NE
Cosmos 2058 2.8 17:55:11 10° N 17:59:18 81° E 18:03:32 10° S
IRIDIUM 114 4.3 17:54:04 10° S 17:59:22 71° E 18:04:36 10° N
NOAA 11 4.4 17:55:03 10° SSE 18:00:24 49° E 18:05:41 10° N
Meteor 2-8 Rocket 4.5 17:55:37 10° S 18:01:53 87° E 18:08:03 10° N
SMAP 3.5 17:58:08 10° SSE 18:02:39 42° E 18:07:04 10° N
Atlas Centaur 2 3.3 17:58:39 10° WNW 18:03:40 38° N 18:09:56 10° ENE
COSMO-SKYMED 1 4.5 17:59:51 10° NNW 18:03:51 35° W 18:07:55 10° SSW
Cosmos 2026 Rocket 4.0 17:57:32 10° N 18:03:52 68° E 18:10:16 10° SSE
CSL-04 DEB 4.3 18:00:55 10° NNE 18:04:52 89° WSW 18:08:53 10° SSW
CZ-2C R/B 2.7 18:00:05 10° NNE 18:05:42 77° ESE 18:11:23 10° S
H-2A R/B 4.5 18:02:20 10° NNW 18:05:53 26° W 18:09:25 10° SW
DMSP B5D1-3 4.5 18:02:41 10° NNE 18:07:49 83° ESE 18:13:03 10° SSW
IRIDIUM 103 4.3 18:03:10 10° S 18:08:29 87° E 18:13:44 10° N
Cosmos 1825 2.8 18:05:38 10° NNW 18:09:23 59° W 18:13:11 10° S
USA 234 3.6 18:03:18 10° SE 18:09:49 64° SW 18:16:18 10° WNW
Cosmos 405 Rocket 2.7 18:11:21 10° N 18:15:05 83° W 18:18:56 10° S
Cosmos 1980 3.7 18:09:30 10° NNW 18:15:10 76° ENE 18:20:53 10° SSE
Cosmos 1842 Rocket 3.5 18:10:51 10° S 18:15:22 80° E 18:19:52 10° N
NOAA 6 4.0 18:14:30 10° SSE 18:19:44 81° ENE 18:24:52 10° N
Envisat 4.3 18:14:54 10° S 18:19:45 42° WSW 18:24:32 10° NW
FengYun 1-2 T 4.3 18:16:42 10° SSE 18:22:13 57° E 18:27:37 10° N
Radarsat Rocket 4.0 18:16:22 10° SSE 18:22:21 55° ENE 18:28:03 10° N
MOS 1-B Rocket 4.3 18:19:26 10° NE 18:24:32 37° ESE 18:29:57 10° S
Cosmos 1356 4.4 18:21:27 10° NNW 18:24:46 49° W 18:28:10 10° S
SL-16 R/B 3.0 18:22:18 10° NNE 18:27:05 29° ENE 18:28:39 25° ESE
Cosmos 1437 Rocket 2.6 18:24:44 10° S 18:28:31 58° E 18:32:15 10° NNE
CZ-4B R/B 3.9 18:27:10 10° NNW 18:29:40 23° W 18:32:14 10° SW
MOS 1-B 4.3 18:23:57 10° SSE 18:29:49 69° ENE 18:35:37 10° N
CZ-4B DEB 4.2 18:25:17 10° SSE 18:30:51 89° ENE 18:36:20 10° NNW
Cosmos 2221 2.9 18:26:36 10° SSW 18:30:55 65° W 18:35:09 10° N
Cosmos 1689 Rocket 1.9 18:31:57 10° NNE 18:34:48 89° NW 18:37:44 10° SSW
Cosmos 1606 2.5 18:31:43 10° S 18:35:34 70° E 18:39:19 10° NNE
SL-8 R/B 4.2 18:31:23 10° WNW 18:36:09 54° SSW 18:38:39 27° SE
USA 102 3.7 18:29:52 10° NE 18:37:11 67° ESE 18:38:00 55° SSE
S3M 4.4 18:31:18 10° S 18:37:20 42° ESE 18:43:21 10° NNE
ATLAS 3B R/B 3.3 18:30:33 10° NW 18:38:00 63° SW 18:45:21 10° SSE
Meteor 2-14 Rocket 4.5 18:36:55 10° NNE 18:42:54 56° E 18:48:59 10° SSE
Cosmos 1076 Rocket 4.2 18:45:09 10° NNW 18:49:21 54° W 18:53:38 10° S
Cosmos 1900 4.3 18:44:58 10° SSW 18:50:04 63° ESE 18:52:13 34° NE
Cosmos 1461 3.7 18:46:57 10° SSW 18:50:15 36° SSE 18:50:15 36° SSE
Cosmos 967 Rocket 4.4 18:44:52 10° SSW 18:51:15 63° ESE 18:55:14 24° NE
Cosmos 1553 Rocket 3.8 18:47:02 10° S 18:53:14 82° E 18:59:19 10° N
Cosmos 1777 Rocket 4.0 18:49:05 10° SSW 18:54:26 88° WNW 18:59:41 10° NNE
H-2A R/B 3.7 19:00:07 18° NNE 19:00:07 18° NNE 19:01:29 10° NNE
Cosmos 2237 Rocket 3.0 18:52:03 10° NW 18:57:34 52° WSW 19:03:10 10° SSE
Cosmos 1809 Rocket 4.5 18:55:26 10° N 19:01:39 84° W 19:07:57 10° S
CZ-2C R/B 2.8 18:59:03 15° SSE 19:03:09 86° WSW 19:07:56 10° NNW
Cosmos 2151 3.1 18:58:59 10° NNW 19:03:11 72° W 19:05:43 24° S
ERS-2 2.8 19:01:44 10° N 19:05:20 55° WNW 19:09:00 10° SSW
Meteor 1-26 Rocket 4.4 18:59:29 10° S 19:05:28 53° ESE 19:06:30 47° ENE
CZ-2D R/B 3.8 19:08:10 49° N 19:08:10 49° N 19:11:04 10° NNW
Cosmos 1417 Rocket 4.5 19:01:29 10° S 19:07:57 90° E 19:14:17 10° N
Okean O Rocket 1.7 19:06:03 28° S 19:08:24 76° WSW 19:12:52 10° NNW
SJ 16-02 2.7 19:04:22 10° S 19:06:30 27° S 19:06:30 27° S
Cosmos 1633 4.1 19:09:16 10° NNW 19:12:35 36° WSW 19:14:15 23° SSW
Cosmos 1943 Rocket 3.8 19:13:48 10° S 19:15:55 21° S 19:15:55 21° S
Cosmos 1655 Rocket 4.0 19:13:37 10° N 19:19:57 86° W 19:26:25 10° S
Cosmos 2278 Rocket 3.5 19:18:43 10° SW 19:24:00 39° WNW 19:29:14 10° N
Meteor 2-3 Rocket 3.8 19:20:11 10° NNW 19:25:46 74° W 19:29:42 21° S
CZ-4B R/B 4.0 19:25:01 10° S 19:30:10 48° WSW 19:35:16 10° NW
Meteor 2-16 Rocket 4.3 19:25:58 10° N 19:32:05 90° W 19:33:54 49° S
H-2A R/B 3.8 19:33:35 35° W 19:33:35 35° W 19:36:39 10° NW
Lacrosse 5 3.0 19:31:39 10° SW 19:34:45 35° SSW 19:34:45 35° SSW
Atlas Centaur 2 3.7 19:46:57 10° WNW 19:52:28 32° NNW 19:52:49 32° N
SL-16 R/B 3.5 20:05:47 10° NW 20:10:36 37° WSW 20:10:36 37° WSW
